Tracking 20083 objects as of 9-Dec-2019
HD Live streaming from Space Station
objects crossing your sky now

FENGYUN 1C DEB

Track FENGYUN 1C DEB now!
10-day predictions


NORAD ID: 32143
Int'l Code: 1999-025CSM
Perigee: 769.6 km
Apogee: 922.1 km
Inclination: 98.6 °
Period: 101.7 minutes
Semi major axis: 7216 km
RCS: 0.012 m2 (small)
Launch date: May 10, 1999
Source: People's Republic of China (PRC)
Launch site: Taiyaun Space Center, China (TSC)

Note: This is SATELLITE DEBRIS
aabbcc
Your satellite tracking list
Your tracking list is empty




NASA's NSSDC Master Catalog

Two Line Element Set (TLE):
1 32143U 99025CSM 19339.83073562 +.00000042 +00000-0 +40637-4 0  9997
2 32143 098.5869 011.7789 0105609 321.4267 037.9395 14.16060186648006
Source of the keplerian elements: AFSPC